PBD279 UUWW-URMM

Flight info

Callsign PBD279
Flight time 2h 49m
Altitude 35000
Route TOGM3A TOGMO M56 ABAGI B105 NIMTA/K0852F360 B105 NATIT/K0839F350 DCT MOLED N50 LIDUS/K0826F340 G242 ZG/K0826F330 G242 TEREK DCT ITAKA/K0828F320 DCT OBBUD DCT AMKOL DCT GOTIK DCT MEMZA A962 OKARU OKAR5A
Aircraft B738/M-SADFGHIJ1J4RWY/HB1

Departure

Time 2026-04-21 09:57
Airport Vnukovo International Airport (UUWW)

Arrival

Time 2026-04-21 12:46
Airport Mineralnye Vody Airport (URMM)
Time Latitude Longitude Altitude Speed Heading
2026-04-21 09:11 55.60005 37.28098 694 ft 0 kts
2026-04-21 09:50 55.60021 37.28100 690 ft 5 kts
2026-04-21 09:51 55.60071 37.28076 694 ft 9 kts 309°
2026-04-21 09:51 55.60098 37.27980 689 ft 9 kts 302°
2026-04-21 09:51 55.60108 37.27882 691 ft 9 kts 246°
2026-04-21 09:51 55.60059 37.27791 688 ft 12 kts 224°
2026-04-21 09:52 55.59988 37.27692 691 ft 13 kts 226°
2026-04-21 09:52 55.59935 37.27563 692 ft 13 kts 234°
2026-04-21 09:52 55.59871 37.27444 690 ft 15 kts 226°
2026-04-21 09:52 55.59794 37.27300 688 ft 16 kts 226°
2026-04-21 09:53 55.59717 37.27158 694 ft 16 kts 226°
2026-04-21 09:53 55.59644 37.27022 685 ft 15 kts 226°
2026-04-21 09:53 55.59573 37.26893 694 ft 14 kts 214°
2026-04-21 09:53 55.59479 37.26891 688 ft 14 kts 205°
2026-04-21 09:54 55.59408 37.26782 691 ft 13 kts 221°
2026-04-21 09:54 55.59341 37.26675 690 ft 13 kts 223°
2026-04-21 09:54 55.59262 37.26561 687 ft 16 kts 213°
2026-04-21 09:54 55.59155 37.26475 688 ft 18 kts 203°
2026-04-21 09:55 55.59041 37.26387 694 ft 18 kts 204°
2026-04-21 09:55 55.58923 37.26296 694 ft 17 kts 203°
2026-04-21 09:55 55.58828 37.26190 687 ft 16 kts 243°
2026-04-21 09:55 55.58787 37.26007 689 ft 16 kts 248°
2026-04-21 09:56 55.58829 37.25899 692 ft 14 kts 14°
2026-04-21 09:56 55.58967 37.26002 694 ft 45 kts 23°
2026-04-21 09:56 55.59491 37.26403 691 ft 116 kts 23°
2026-04-21 09:56 55.60418 37.27105 702 ft 172 kts 25°
2026-04-21 09:57 55.61570 37.28035 1276 ft 186 kts 22°
2026-04-21 09:57 55.62739 37.28994 2259 ft 181 kts 22°
2026-04-21 09:57 55.63886 37.29930 2959 ft 186 kts 21°
2026-04-21 09:57 55.65107 37.30832 3500 ft 193 kts 17°
2026-04-21 09:58 55.66214 37.32129 4147 ft 201 kts 50°
2026-04-21 09:58 55.66767 37.34443 4751 ft 212 kts 71°
2026-04-21 09:58 55.66696 37.37146 5168 ft 231 kts 105°
2026-04-21 09:58 55.66066 37.39775 5866 ft 231 kts 108°
2026-04-21 09:59 55.65226 37.42221 6498 ft 243 kts 131°
2026-04-21 09:59 55.63716 37.43869 6824 ft 266 kts 150°
2026-04-21 09:59 55.62004 37.45286 7422 ft 274 kts 150°
2026-04-21 09:59 55.60278 37.46733 7974 ft 275 kts 150°
2026-04-21 10:00 55.58454 37.47746 7992 ft 280 kts 174°
2026-04-21 10:00 55.56522 37.47152 7992 ft 287 kts 205°
2026-04-21 10:00 55.54914 37.45076 8069 ft 289 kts 225°
2026-04-21 10:00 55.53479 37.42569 8671 ft 291 kts 225°
2026-04-21 10:01 55.52055 37.40091 9556 ft 290 kts 225°
2026-04-21 10:01 55.50588 37.37571 10348 ft 292 kts 224°
2026-04-21 10:01 55.49015 37.35371 11030 ft 295 kts 205°
2026-04-21 10:01 55.47034 37.34524 11727 ft 294 kts 176°
2026-04-21 10:02 55.43310 37.37605 12293 ft 323 kts 135°
2026-04-21 10:02 55.41598 37.40385 12476 ft 345 kts 134°
2026-04-21 10:02 55.39811 37.43358 12794 ft 361 kts 134°
2026-04-21 10:03 55.37969 37.46419 13412 ft 367 kts 134°
2026-04-21 10:03 55.36101 37.49506 14116 ft 369 kts 134°
2026-04-21 10:03 55.34206 37.52614 14763 ft 373 kts 135°
2026-04-21 10:03 55.32302 37.55720 15427 ft 376 kts 135°
2026-04-21 10:04 55.30749 37.58244 15944 ft 378 kts 135°
2026-04-21 10:04 55.28829 37.61357 16556 ft 382 kts 135°
2026-04-21 10:04 55.26869 37.64527 17142 ft 386 kts 135°
2026-04-21 10:04 55.24881 37.67740 17788 ft 389 kts 135°
2026-04-21 10:05 55.22890 37.70949 18403 ft 391 kts 135°
2026-04-21 10:05 55.20872 37.74199 18960 ft 393 kts 135°
2026-04-21 10:05 55.18856 37.77441 19492 ft 396 kts 135°
2026-04-21 10:05 55.16825 37.80702 20039 ft 399 kts 135°
2026-04-21 10:06 55.14767 37.83999 20570 ft 401 kts 135°
2026-04-21 10:06 55.12699 37.87308 21102 ft 404 kts 135°
2026-04-21 10:06 55.10619 37.90631 21626 ft 406 kts 135°
2026-04-21 10:06 55.08524 37.93975 22136 ft 409 kts 135°
2026-04-21 10:07 55.06417 37.97332 22626 ft 412 kts 135°
2026-04-21 10:07 55.04293 38.00711 23106 ft 414 kts 135°
2026-04-21 10:07 55.02152 38.04112 23568 ft 417 kts 135°
2026-04-21 10:07 55.00002 38.07523 23946 ft 419 kts 136°
2026-04-21 10:08 54.97839 38.10948 24335 ft 422 kts 135°
2026-04-21 10:08 54.95654 38.14402 24710 ft 425 kts 135°
2026-04-21 10:08 54.93465 38.17859 25080 ft 427 kts 135°
2026-04-21 10:08 54.91288 38.21291 25443 ft 429 kts 135°
2026-04-21 10:09 54.89069 38.24784 25793 ft 432 kts 135°
2026-04-21 10:09 54.86836 38.28293 26140 ft 434 kts 136°
2026-04-21 10:09 54.84586 38.31825 26499 ft 437 kts 135°
2026-04-21 10:09 54.82323 38.35370 26834 ft 439 kts 135°
2026-04-21 10:10 54.80046 38.38931 27157 ft 442 kts 135°
2026-04-21 10:10 54.77757 38.42506 27477 ft 444 kts 136°
2026-04-21 10:10 54.75456 38.46095 27815 ft 446 kts 136°
2026-04-21 10:10 54.73147 38.49690 28113 ft 448 kts 136°
2026-04-21 10:11 54.70817 38.53310 28406 ft 451 kts 136°
2026-04-21 10:11 54.68474 38.56946 28704 ft 453 kts 136°
2026-04-21 10:11 54.66121 38.60591 29007 ft 455 kts 136°
2026-04-21 10:11 54.63766 38.64234 29287 ft 457 kts 136°
2026-04-21 10:12 54.61384 38.67913 29597 ft 459 kts 136°
2026-04-21 10:12 54.59006 38.71579 29942 ft 460 kts 136°
2026-04-21 10:12 54.56651 38.75203 30298 ft 458 kts 136°
2026-04-21 10:12 54.54272 38.78859 30620 ft 457 kts 136°
2026-04-21 10:13 54.51893 38.82509 30872 ft 458 kts 136°
2026-04-21 10:13 54.49511 38.86159 31133 ft 459 kts 136°
2026-04-21 10:13 54.47127 38.89807 31430 ft 459 kts 136°
2026-04-21 10:13 54.44739 38.93456 31721 ft 458 kts 136°
2026-04-21 10:14 54.42346 38.97103 31972 ft 459 kts 136°
2026-04-21 10:14 54.40112 39.00996 32198 ft 458 kts 128°
2026-04-21 10:14 54.38256 39.05431 32468 ft 456 kts 120°
2026-04-21 10:14 54.36819 39.10260 32737 ft 454 kts 110°
2026-04-21 10:15 54.35674 39.15312 33000 ft 453 kts 109°
2026-04-21 10:15 54.34550 39.20292 33203 ft 455 kts 110°
2026-04-21 10:15 54.33376 39.25323 33432 ft 455 kts 111°
2026-04-21 10:15 54.32170 39.30347 33676 ft 455 kts 111°
2026-04-21 10:16 54.30949 39.35381 33910 ft 455 kts 112°
2026-04-21 10:16 54.29731 39.40377 34088 ft 456 kts 112°
2026-04-21 10:16 54.28523 39.45323 34254 ft 457 kts 112°
2026-04-21 10:16 54.27277 39.50422 34439 ft 457 kts 112°
2026-04-21 10:17 54.26067 39.55371 34635 ft 457 kts 112°
2026-04-21 10:17 54.24839 39.60387 34797 ft 456 kts 112°
2026-04-21 10:17 54.23610 39.65398 34860 ft 457 kts 112°
2026-04-21 10:18 54.21135 39.75456 34884 ft 459 kts 112°
2026-04-21 10:18 54.18648 39.85519 34875 ft 459 kts 113°
2026-04-21 10:19 54.16154 39.95565 34876 ft 459 kts 113°
2026-04-21 10:19 54.13652 40.05603 34874 ft 459 kts 113°
2026-04-21 10:20 54.11237 40.15682 34869 ft 459 kts 108°
2026-04-21 10:20 54.09417 40.26022 34873 ft 458 kts 106°
2026-04-21 10:21 54.07677 40.36485 34872 ft 458 kts 106°
2026-04-21 10:21 54.05890 40.46880 34871 ft 457 kts 107°
2026-04-21 10:22 54.04062 40.57255 34867 ft 457 kts 107°
2026-04-21 10:22 54.02223 40.67601 34870 ft 456 kts 107°
2026-04-21 10:23 54.00387 40.77883 34866 ft 456 kts 107°
2026-04-21 10:23 53.98533 40.88213 34867 ft 456 kts 108°
2026-04-21 10:24 53.96989 40.96782 34864 ft 456 kts 108°
2026-04-21 10:24 53.95135 41.07105 34865 ft 457 kts 107°
2026-04-21 10:25 53.93439 41.17497 34863 ft 457 kts 106°
2026-04-21 10:25 53.91765 41.27943 34862 ft 458 kts 106°
2026-04-21 10:26 53.90064 41.38353 34861 ft 459 kts 107°
2026-04-21 10:26 53.88339 41.48771 34858 ft 460 kts 107°
2026-04-21 10:27 53.86612 41.59133 34857 ft 460 kts 107°
2026-04-21 10:27 53.84862 41.69584 34858 ft 461 kts 107°
2026-04-21 10:28 53.83095 41.80035 34854 ft 461 kts 107°
2026-04-21 10:28 53.81296 41.90483 34852 ft 462 kts 108°
2026-04-21 10:29 53.79486 42.00932 34854 ft 462 kts 108°
2026-04-21 10:29 53.77683 42.11299 34854 ft 463 kts 108°
2026-04-21 10:30 53.75858 42.21737 34851 ft 463 kts 108°
2026-04-21 10:30 53.74024 42.32171 34843 ft 463 kts 108°
2026-04-21 10:31 53.72182 42.42590 34840 ft 463 kts 108°
2026-04-21 10:31 53.70331 42.53012 34841 ft 463 kts 108°
2026-04-21 10:32 53.68261 42.63188 34812 ft 459 kts 123°
2026-04-21 10:32 53.66319 42.67411 34849 ft 454 kts 138°
2026-04-21 10:32 53.63821 42.70618 34834 ft 450 kts 153°
2026-04-21 10:33 53.58118 42.74867 34838 ft 448 kts 159°
2026-04-21 10:33 53.52329 42.78863 34834 ft 449 kts 159°
2026-04-21 10:34 53.46556 42.82933 34840 ft 450 kts 159°
2026-04-21 10:34 53.40821 42.87035 34840 ft 451 kts 159°
2026-04-21 10:35 53.35040 42.91174 34845 ft 452 kts 159°
2026-04-21 10:35 53.29247 42.95305 34841 ft 452 kts 159°
2026-04-21 10:36 53.23445 42.99428 34845 ft 452 kts 159°
2026-04-21 10:36 53.17654 43.03533 34850 ft 452 kts 159°
2026-04-21 10:37 53.11904 43.07614 34845 ft 452 kts 158°
2026-04-21 10:37 53.06154 43.11873 34853 ft 452 kts 158°
2026-04-21 10:38 53.00425 43.16164 34848 ft 451 kts 158°
2026-04-21 10:38 52.94692 43.20430 34851 ft 450 kts 158°
2026-04-21 10:39 52.88998 43.24638 34850 ft 449 kts 158°
2026-04-21 10:39 52.83279 43.28846 34851 ft 449 kts 158°
2026-04-21 10:40 52.77577 43.33030 34849 ft 448 kts 158°
2026-04-21 10:40 52.71874 43.37202 34853 ft 448 kts 159°
2026-04-21 10:41 52.66177 43.41358 34852 ft 448 kts 159°
2026-04-21 10:41 52.60512 43.45479 34856 ft 447 kts 159°
2026-04-21 10:42 52.54780 43.49638 34855 ft 447 kts 159°
2026-04-21 10:42 52.49114 43.53736 34854 ft 447 kts 159°
2026-04-21 10:43 52.43414 43.57848 34855 ft 447 kts 159°
2026-04-21 10:43 52.37744 43.61926 34859 ft 447 kts 159°
2026-04-21 10:44 52.32034 43.66022 34865 ft 447 kts 159°
2026-04-21 10:44 52.26325 43.70105 34865 ft 447 kts 159°
2026-04-21 10:45 52.20629 43.74168 34868 ft 447 kts 159°
2026-04-21 10:45 52.14933 43.78219 34873 ft 446 kts 159°
2026-04-21 10:46 52.09264 43.82240 34876 ft 446 kts 160°
2026-04-21 10:46 52.03564 43.86272 34878 ft 446 kts 160°
2026-04-21 10:47 51.97871 43.90287 34886 ft 446 kts 160°
2026-04-21 10:47 51.92174 43.94293 34888 ft 446 kts 160°
2026-04-21 10:48 51.86461 43.98301 34887 ft 446 kts 160°
2026-04-21 10:48 51.80796 44.02263 34898 ft 446 kts 160°
2026-04-21 10:49 51.75097 44.06239 34889 ft 446 kts 160°
2026-04-21 10:49 51.69396 44.10205 34889 ft 445 kts 160°
2026-04-21 10:50 51.63694 44.14161 34897 ft 445 kts 160°
2026-04-21 10:50 51.58039 44.18073 34890 ft 445 kts 160°
2026-04-21 10:51 51.52353 44.21996 34891 ft 445 kts 160°
2026-04-21 10:51 51.46666 44.25909 34887 ft 444 kts 160°
2026-04-21 10:52 51.40983 44.29809 34893 ft 444 kts 160°
2026-04-21 10:52 51.35300 44.33698 34893 ft 444 kts 161°
2026-04-21 10:53 51.29610 44.37582 34894 ft 444 kts 161°
2026-04-21 10:53 51.23926 44.41453 34894 ft 444 kts 161°
2026-04-21 10:54 51.18251 44.45145 34890 ft 441 kts 167°
2026-04-21 10:54 51.12262 44.46652 34887 ft 432 kts 184°
2026-04-21 10:55 51.06270 44.46125 34898 ft 430 kts 187°
2026-04-21 10:55 51.00292 44.45481 34897 ft 431 kts 186°
2026-04-21 10:56 50.94310 44.44879 34897 ft 431 kts 186°
2026-04-21 10:56 50.88312 44.44309 34903 ft 431 kts 186°
2026-04-21 10:57 50.82373 44.43757 34900 ft 431 kts 186°
2026-04-21 10:57 50.76380 44.43203 34906 ft 431 kts 186°
2026-04-21 10:58 50.70390 44.42649 34905 ft 431 kts 186°
2026-04-21 10:58 50.64394 44.42096 34907 ft 431 kts 186°
2026-04-21 10:59 50.58395 44.41893 34902 ft 434 kts 177°
2026-04-21 10:59 50.52552 44.44226 34923 ft 440 kts 164°
2026-04-21 11:00 50.46801 44.47549 34918 ft 440 kts 164°
2026-04-21 11:00 50.41053 44.50846 34910 ft 440 kts 164°
2026-04-21 11:01 50.35289 44.54103 34910 ft 439 kts 164°
2026-04-21 11:01 50.29535 44.57325 34917 ft 439 kts 165°
2026-04-21 11:02 50.20912 44.62132 34919 ft 439 kts 165°
2026-04-21 11:02 50.15186 44.65313 34931 ft 443 kts 165°
2026-04-21 11:03 50.09311 44.68566 34927 ft 450 kts 165°
2026-04-21 11:03 50.03368 44.71852 34930 ft 455 kts 165°
2026-04-21 11:04 49.97383 44.75156 34910 ft 457 kts 165°
2026-04-21 11:04 49.91421 44.78438 34921 ft 457 kts 165°
2026-04-21 11:05 49.85429 44.81727 34928 ft 456 kts 165°
2026-04-21 11:05 49.79434 44.85009 34924 ft 455 kts 165°
2026-04-21 11:06 49.73501 44.88248 34923 ft 454 kts 165°
2026-04-21 11:06 49.67540 44.91493 34931 ft 453 kts 165°
2026-04-21 11:07 49.61590 44.94723 34931 ft 452 kts 165°
2026-04-21 11:07 49.55652 44.97939 34931 ft 452 kts 165°
2026-04-21 11:08 49.49717 45.01145 34936 ft 451 kts 165°
2026-04-21 11:08 49.43821 45.04322 34939 ft 451 kts 165°
2026-04-21 11:09 49.37888 45.07511 34940 ft 450 kts 165°
2026-04-21 11:09 49.32000 45.10667 34940 ft 450 kts 166°
2026-04-21 11:10 49.26079 45.13832 34946 ft 450 kts 166°
2026-04-21 11:10 49.20165 45.16987 34941 ft 450 kts 166°
2026-04-21 11:11 49.15253 45.19601 34949 ft 449 kts 166°
2026-04-21 11:11 49.08371 45.23253 34948 ft 449 kts 166°
2026-04-21 11:12 49.03450 45.25859 34948 ft 449 kts 166°
2026-04-21 11:12 48.97535 45.28982 34955 ft 449 kts 166°
2026-04-21 11:13 48.91628 45.32095 34951 ft 449 kts 166°
2026-04-21 11:13 48.85729 45.35195 34939 ft 448 kts 166°
2026-04-21 11:14 48.79865 45.38270 34923 ft 448 kts 166°
2026-04-21 11:14 48.73968 45.41353 34906 ft 448 kts 166°
2026-04-21 11:15 48.68071 45.44429 34894 ft 447 kts 166°
2026-04-21 11:15 48.62208 45.47480 34893 ft 448 kts 166°
2026-04-21 11:16 48.56277 45.50558 34883 ft 447 kts 166°
2026-04-21 11:16 48.50391 45.53606 34901 ft 447 kts 166°
2026-04-21 11:17 48.44506 45.56646 34918 ft 447 kts 166°
2026-04-21 11:17 48.38659 45.59659 34938 ft 446 kts 166°
2026-04-21 11:18 48.32779 45.62681 34958 ft 446 kts 166°
2026-04-21 11:18 48.26906 45.65693 34961 ft 446 kts 166°
2026-04-21 11:19 48.21029 45.68699 34962 ft 446 kts 166°
2026-04-21 11:19 48.15192 45.71677 34964 ft 446 kts 166°
2026-04-21 11:20 48.09294 45.74679 34965 ft 446 kts 166°
2026-04-21 11:20 48.03414 45.77665 34965 ft 446 kts 166°
2026-04-21 11:21 47.97565 45.80628 34965 ft 446 kts 166°
2026-04-21 11:21 47.91678 45.83603 34968 ft 447 kts 166°
2026-04-21 11:22 47.85781 45.86576 34966 ft 446 kts 166°
2026-04-21 11:22 47.79884 45.89542 34964 ft 446 kts 166°
2026-04-21 11:23 47.74019 45.92485 34967 ft 446 kts 166°
2026-04-21 11:23 47.68138 45.95429 34962 ft 446 kts 167°
2026-04-21 11:24 47.62241 45.98374 34969 ft 446 kts 167°
2026-04-21 11:24 47.56361 46.01303 34969 ft 446 kts 167°
2026-04-21 11:25 47.50504 46.04214 34971 ft 446 kts 167°
2026-04-21 11:25 47.44623 46.07130 34971 ft 446 kts 167°
2026-04-21 11:26 47.38736 46.10043 34973 ft 445 kts 167°
2026-04-21 11:26 47.32854 46.12945 34971 ft 445 kts 167°
2026-04-21 11:27 47.27014 46.15821 34974 ft 445 kts 167°
2026-04-21 11:27 47.21119 46.18715 34984 ft 447 kts 166°
2026-04-21 11:28 47.15183 46.21626 34979 ft 450 kts 166°
2026-04-21 11:28 47.09231 46.24554 34977 ft 453 kts 163°
2026-04-21 11:29 47.06391 46.26652 34973 ft 461 kts 150°
2026-04-21 11:29 47.03865 46.29604 34980 ft 468 kts 140°
2026-04-21 11:29 47.01779 46.33226 34972 ft 476 kts 128°
2026-04-21 11:29 46.99984 46.37322 34987 ft 478 kts 126°
2026-04-21 11:30 46.96494 46.45632 34981 ft 478 kts 126°
2026-04-21 11:30 46.92974 46.53898 34977 ft 478 kts 126°
2026-04-21 11:31 46.89405 46.62098 34981 ft 477 kts 127°
2026-04-21 11:31 46.85824 46.70256 34979 ft 476 kts 127°
2026-04-21 11:32 46.82262 46.78351 34987 ft 476 kts 127°
2026-04-21 11:32 46.78681 46.86474 34983 ft 475 kts 127°
2026-04-21 11:33 46.75102 46.94571 34988 ft 474 kts 127°
2026-04-21 11:33 46.71522 47.02648 34989 ft 474 kts 127°
2026-04-21 11:34 46.67950 47.10710 34989 ft 473 kts 127°
2026-04-21 11:34 46.64422 47.18808 34991 ft 473 kts 126°
2026-04-21 11:35 46.60897 47.26905 34991 ft 473 kts 127°
2026-04-21 11:35 46.57390 47.34922 34993 ft 472 kts 127°
2026-04-21 11:36 46.53854 47.42970 34994 ft 472 kts 127°
2026-04-21 11:36 46.50321 47.50987 34997 ft 471 kts 127°
2026-04-21 11:37 46.46777 47.59006 34999 ft 471 kts 127°
2026-04-21 11:37 46.43231 47.67007 35001 ft 471 kts 127°
2026-04-21 11:38 46.39705 47.74941 35009 ft 470 kts 127°
2026-04-21 11:38 46.36156 47.82905 35019 ft 470 kts 127°
2026-04-21 11:39 46.32611 47.90840 35023 ft 470 kts 127°
2026-04-21 11:39 46.30691 47.94628 34994 ft 462 kts 140°
2026-04-21 11:39 46.28210 47.97372 35025 ft 439 kts 157°
2026-04-21 11:40 46.25434 47.98963 35019 ft 420 kts 169°
2026-04-21 11:40 46.22583 47.99638 35015 ft 412 kts 182°
2026-04-21 11:40 46.16963 47.98862 34928 ft 410 kts 191°
2026-04-21 11:41 46.14096 47.98247 34808 ft 411 kts 191°
2026-04-21 11:41 46.11311 47.97640 34685 ft 409 kts 191°
2026-04-21 11:41 46.08496 47.97036 34560 ft 408 kts 191°
2026-04-21 11:41 46.05696 47.96449 34434 ft 407 kts 191°
2026-04-21 11:42 46.02876 47.95870 34194 ft 410 kts 190°
2026-04-21 11:42 46.00040 47.95297 33950 ft 412 kts 190°
2026-04-21 11:42 45.97199 47.94729 33671 ft 413 kts 190°
2026-04-21 11:42 45.94353 47.94164 33393 ft 413 kts 190°
2026-04-21 11:43 45.91509 47.93602 33115 ft 412 kts 190°
2026-04-21 11:43 45.88673 47.93043 32842 ft 411 kts 190°
2026-04-21 11:43 45.85828 47.92483 32578 ft 410 kts 190°
2026-04-21 11:43 45.83042 47.91934 32315 ft 409 kts 190°
2026-04-21 11:44 45.80221 47.91380 32075 ft 408 kts 190°
2026-04-21 11:44 45.77409 47.90826 32033 ft 410 kts 190°
2026-04-21 11:44 45.71753 47.89714 32009 ft 409 kts 190°
2026-04-21 11:45 45.66127 47.88612 32007 ft 408 kts 190°
2026-04-21 11:45 45.60482 47.87507 32003 ft 409 kts 190°
2026-04-21 11:46 45.54828 47.86403 32005 ft 410 kts 190°
2026-04-21 11:46 45.49162 47.85299 32012 ft 411 kts 190°
2026-04-21 11:47 45.43497 47.84197 32008 ft 411 kts 190°
2026-04-21 11:47 45.37863 47.83104 32011 ft 411 kts 190°
2026-04-21 11:48 45.32181 47.82004 32014 ft 412 kts 189°
2026-04-21 11:48 45.26502 47.80906 32010 ft 412 kts 189°
2026-04-21 11:49 45.20810 47.79809 32020 ft 412 kts 189°
2026-04-21 11:49 45.15118 47.78713 32019 ft 412 kts 189°
2026-04-21 11:50 45.09470 47.77628 32021 ft 412 kts 189°
2026-04-21 11:50 45.03794 47.76540 32021 ft 411 kts 189°
2026-04-21 11:51 44.98125 47.75455 32021 ft 411 kts 189°
2026-04-21 11:51 44.92457 47.74373 32020 ft 411 kts 189°
2026-04-21 11:52 44.86785 47.73292 32021 ft 411 kts 189°
2026-04-21 11:52 44.81154 47.72221 32019 ft 411 kts 189°
2026-04-21 11:53 44.75491 47.71146 32017 ft 411 kts 189°
2026-04-21 11:53 44.69824 47.70072 32015 ft 411 kts 189°
2026-04-21 11:54 44.64146 47.68998 32015 ft 411 kts 189°
2026-04-21 11:54 44.58512 47.67935 32017 ft 411 kts 189°
2026-04-21 11:55 44.52805 47.66860 32014 ft 411 kts 189°
2026-04-21 11:55 44.47167 47.65801 32014 ft 412 kts 189°
2026-04-21 11:56 44.41476 47.64733 32016 ft 412 kts 189°
2026-04-21 11:56 44.35779 47.63666 32014 ft 413 kts 189°
2026-04-21 11:57 44.30080 47.62601 32014 ft 413 kts 189°
2026-04-21 11:57 44.25336 47.61716 32015 ft 414 kts 189°
2026-04-21 11:58 44.19627 47.60654 32013 ft 414 kts 189°
2026-04-21 11:58 44.13921 47.59593 32013 ft 415 kts 189°
2026-04-21 11:59 44.08198 47.58532 32011 ft 415 kts 189°
2026-04-21 11:59 44.02253 47.57431 32011 ft 415 kts 189°
2026-04-21 12:00 43.96511 47.56370 32009 ft 416 kts 189°
2026-04-21 12:00 43.90773 47.55313 32007 ft 416 kts 189°
2026-04-21 12:01 43.85070 47.54263 32008 ft 416 kts 189°
2026-04-21 12:01 43.79329 47.53208 32009 ft 417 kts 189°
2026-04-21 12:02 43.70670 47.51621 31999 ft 418 kts 188°
2026-04-21 12:02 43.67818 47.50847 31983 ft 417 kts 201°
2026-04-21 12:03 43.65267 47.48989 32012 ft 415 kts 217°
2026-04-21 12:03 43.63191 47.46224 32011 ft 417 kts 231°
2026-04-21 12:03 43.61657 47.42823 31999 ft 420 kts 244°
2026-04-21 12:03 43.60792 47.38963 32005 ft 424 kts 258°
2026-04-21 12:04 43.60401 47.34976 32003 ft 425 kts 261°
2026-04-21 12:04 43.59793 47.26838 31993 ft 426 kts 261°
2026-04-21 12:05 43.59185 47.18687 31996 ft 426 kts 261°
2026-04-21 12:05 43.58525 47.10554 31993 ft 426 kts 261°
2026-04-21 12:06 43.57838 47.02428 31987 ft 426 kts 261°
2026-04-21 12:06 43.57146 46.94370 31983 ft 426 kts 261°
2026-04-21 12:07 43.56443 46.86256 31980 ft 425 kts 261°
2026-04-21 12:07 43.55736 46.78154 31981 ft 425 kts 261°
2026-04-21 12:08 43.55026 46.70076 31977 ft 424 kts 261°
2026-04-21 12:08 43.54311 46.62004 31974 ft 424 kts 261°
2026-04-21 12:09 43.53590 46.53937 31967 ft 423 kts 261°
2026-04-21 12:09 43.52870 46.45944 31969 ft 423 kts 261°
2026-04-21 12:10 43.52140 46.37905 31960 ft 422 kts 260°
2026-04-21 12:10 43.51407 46.29885 31959 ft 422 kts 260°
2026-04-21 12:11 43.50664 46.21834 31962 ft 422 kts 260°
2026-04-21 12:11 43.49925 46.13863 31959 ft 422 kts 260°
2026-04-21 12:12 43.49185 46.05818 31948 ft 423 kts 262°
2026-04-21 12:12 43.49421 45.97678 31954 ft 428 kts 274°
2026-04-21 12:13 43.50146 45.89527 31943 ft 429 kts 274°
2026-04-21 12:13 43.50862 45.81363 31942 ft 429 kts 274°
2026-04-21 12:14 43.51539 45.73255 31941 ft 429 kts 274°
2026-04-21 12:14 43.52204 45.65061 31943 ft 430 kts 274°
2026-04-21 12:15 43.52858 45.56881 31941 ft 430 kts 274°
2026-04-21 12:15 43.53508 45.48698 31943 ft 429 kts 274°
2026-04-21 12:16 43.54153 45.40505 31943 ft 428 kts 274°
2026-04-21 12:16 43.54786 45.32390 31941 ft 428 kts 274°
2026-04-21 12:17 43.55416 45.24231 31939 ft 427 kts 274°
2026-04-21 12:17 43.56038 45.16102 31943 ft 426 kts 274°
2026-04-21 12:18 43.56654 45.07975 31939 ft 426 kts 274°
2026-04-21 12:18 43.57265 44.99838 31937 ft 425 kts 274°
2026-04-21 12:19 43.57866 44.91771 31929 ft 425 kts 274°
2026-04-21 12:19 43.58463 44.83661 31940 ft 424 kts 274°
2026-04-21 12:20 43.59054 44.75559 31934 ft 424 kts 274°
2026-04-21 12:20 43.59634 44.67516 31931 ft 423 kts 274°
2026-04-21 12:21 43.60212 44.59441 31929 ft 422 kts 274°
2026-04-21 12:21 43.60783 44.51374 31569 ft 422 kts 274°
2026-04-21 12:21 43.61063 44.47392 31178 ft 415 kts 274°
2026-04-21 12:22 43.61339 44.43451 30765 ft 410 kts 274°
2026-04-21 12:22 43.61611 44.39547 30301 ft 407 kts 274°
2026-04-21 12:22 43.61878 44.35676 29837 ft 404 kts 274°
2026-04-21 12:22 43.62142 44.31837 29329 ft 400 kts 274°
2026-04-21 12:23 43.62401 44.28045 28894 ft 395 kts 274°
2026-04-21 12:23 43.62647 44.24286 28429 ft 390 kts 273°
2026-04-21 12:23 43.62901 44.20589 27981 ft 386 kts 274°
2026-04-21 12:23 43.63236 44.16928 27523 ft 383 kts 281°
2026-04-21 12:24 43.64097 44.13459 27097 ft 383 kts 292°
2026-04-21 12:24 43.65409 44.10264 26662 ft 382 kts 303°
2026-04-21 12:24 43.67127 44.07478 26257 ft 381 kts 310°
2026-04-21 12:24 43.68938 44.04801 25814 ft 379 kts 310°
2026-04-21 12:25 43.70720 44.02198 25388 ft 377 kts 310°
2026-04-21 12:25 43.72534 43.99529 24964 ft 374 kts 310°
2026-04-21 12:25 43.74277 43.96937 24547 ft 372 kts 310°
2026-04-21 12:25 43.76028 43.94311 24131 ft 370 kts 310°
2026-04-21 12:26 43.77767 43.91691 23711 ft 369 kts 310°
2026-04-21 12:26 43.79495 43.89082 23264 ft 367 kts 310°
2026-04-21 12:26 43.81215 43.86481 22791 ft 365 kts 310°
2026-04-21 12:26 43.82927 43.83891 22360 ft 362 kts 310°
2026-04-21 12:27 43.84658 43.81372 21931 ft 361 kts 316°
2026-04-21 12:27 43.86746 43.79456 21584 ft 359 kts 328°
2026-04-21 12:27 43.88941 43.77811 21147 ft 358 kts 329°
2026-04-21 12:27 43.91139 43.76207 20741 ft 356 kts 329°
2026-04-21 12:28 43.93321 43.74610 20335 ft 354 kts 329°
2026-04-21 12:28 43.95488 43.73007 19935 ft 352 kts 329°
2026-04-21 12:28 43.97638 43.71400 19537 ft 350 kts 329°
2026-04-21 12:28 43.99774 43.69792 19144 ft 348 kts 328°
2026-04-21 12:29 44.01897 43.68186 18753 ft 347 kts 328°
2026-04-21 12:29 44.04011 43.66583 18360 ft 346 kts 328°
2026-04-21 12:29 44.06118 43.64981 17928 ft 345 kts 328°
2026-04-21 12:29 44.08222 43.63380 17499 ft 343 kts 328°
2026-04-21 12:30 44.10314 43.61786 17081 ft 341 kts 328°
2026-04-21 12:30 44.12387 43.60206 16685 ft 339 kts 328°
2026-04-21 12:30 44.14420 43.58655 16298 ft 337 kts 328°
2026-04-21 12:30 44.16469 43.57090 15910 ft 334 kts 328°
2026-04-21 12:31 44.18503 43.55536 15534 ft 333 kts 328°
2026-04-21 12:31 44.20528 43.53987 15145 ft 331 kts 328°
2026-04-21 12:31 44.22541 43.52447 14768 ft 329 kts 328°
2026-04-21 12:31 44.24545 43.50912 14390 ft 328 kts 328°
2026-04-21 12:32 44.26512 43.49325 14010 ft 325 kts 321°
2026-04-21 12:32 44.28047 43.47078 13621 ft 318 kts 302°
2026-04-21 12:32 44.29261 43.44510 13231 ft 318 kts 300°
2026-04-21 12:32 44.30452 43.41891 12837 ft 318 kts 300°
2026-04-21 12:33 44.31630 43.39295 12454 ft 316 kts 300°
2026-04-21 12:33 44.32807 43.36717 12089 ft 313 kts 300°
2026-04-21 12:33 44.33980 43.34164 11722 ft 311 kts 300°
2026-04-21 12:33 44.34758 43.32476 11485 ft 310 kts 300°
2026-04-21 12:34 44.36123 43.29520 11066 ft 307 kts 301°
2026-04-21 12:34 44.37275 43.27028 10715 ft 304 kts 300°
2026-04-21 12:34 44.38421 43.24548 10373 ft 302 kts 300°
2026-04-21 12:34 44.39555 43.22093 10075 ft 298 kts 300°
2026-04-21 12:35 44.40669 43.19679 9946 ft 289 kts 300°
2026-04-21 12:35 44.41734 43.17372 9931 ft 276 kts 300°
2026-04-21 12:35 44.42753 43.15161 9875 ft 265 kts 300°
2026-04-21 12:35 44.43738 43.13018 9689 ft 260 kts 300°
2026-04-21 12:36 44.44716 43.10889 9332 ft 261 kts 300°
2026-04-21 12:36 44.45703 43.08738 8988 ft 262 kts 300°
2026-04-21 12:36 44.46687 43.06594 8688 ft 261 kts 300°
2026-04-21 12:36 44.47647 43.04502 8649 ft 248 kts 300°
2026-04-21 12:37 44.48541 43.02560 8526 ft 232 kts 300°
2026-04-21 12:37 44.49367 43.00677 8373 ft 215 kts 290°
2026-04-21 12:37 44.49575 42.98719 8284 ft 197 kts 261°
2026-04-21 12:37 44.49150 42.97015 8175 ft 183 kts 238°
2026-04-21 12:38 44.48327 42.95719 7965 ft 178 kts 219°
2026-04-21 12:38 44.47229 42.94894 7600 ft 181 kts 204°
2026-04-21 12:38 44.46064 42.94252 7328 ft 179 kts 203°
2026-04-21 12:38 44.44896 42.93624 7003 ft 180 kts 202°
2026-04-21 12:39 44.43720 42.92989 6682 ft 181 kts 201°
2026-04-21 12:39 44.42543 42.92355 6376 ft 182 kts 201°
2026-04-21 12:39 44.41433 42.91514 6068 ft 181 kts 211°
2026-04-21 12:39 44.40368 42.90561 5792 ft 180 kts 211°
2026-04-21 12:40 44.39307 42.89613 5492 ft 179 kts 210°
2026-04-21 12:40 44.38256 42.88683 5235 ft 178 kts 209°
2026-04-21 12:40 44.37197 42.87753 4892 ft 180 kts 209°
2026-04-21 12:40 44.36138 42.86824 4608 ft 179 kts 208°
2026-04-21 12:41 44.35082 42.85967 4392 ft 173 kts 195°
2026-04-21 12:41 44.33920 42.85881 4231 ft 166 kts 166°
2026-04-21 12:41 44.32849 42.86451 4046 ft 168 kts 145°
2026-04-21 12:41 44.32027 42.87594 3879 ft 168 kts 124°
2026-04-21 12:42 44.31411 42.88973 3673 ft 167 kts 121°
2026-04-21 12:42 44.30810 42.90349 3506 ft 165 kts 121°
2026-04-21 12:42 44.30199 42.91704 3329 ft 163 kts 122°
2026-04-21 12:42 44.29609 42.93011 3180 ft 155 kts 122°
2026-04-21 12:43 44.29051 42.94248 3051 ft 146 kts 122°
2026-04-21 12:43 44.28513 42.95427 2854 ft 143 kts 122°
2026-04-21 12:43 44.27987 42.96590 2666 ft 139 kts 123°
2026-04-21 12:43 44.27479 42.97701 2488 ft 133 kts 121°
2026-04-21 12:44 44.26993 42.98778 2341 ft 132 kts 122°
2026-04-21 12:44 44.26486 42.99888 2163 ft 137 kts 121°
2026-04-21 12:44 44.25979 43.01030 1996 ft 141 kts 121°
2026-04-21 12:44 44.25467 43.02169 1785 ft 136 kts 121°
2026-04-21 12:45 44.24980 43.03261 1576 ft 131 kts 122°
2026-04-21 12:45 44.24485 43.04341 1403 ft 134 kts 123°
2026-04-21 12:45 44.23982 43.05441 1209 ft 137 kts 123°
2026-04-21 12:45 44.23472 43.06557 1058 ft 133 kts 123°
2026-04-21 12:46 44.23023 43.07545 1052 ft 101 kts 122°
2026-04-21 12:46 44.22726 43.08200 1049 ft 58 kts 122°
2026-04-21 12:46 44.22543 43.08604 1053 ft 32 kts 122°
2026-04-21 12:46 44.22409 43.08802 1052 ft 27 kts 144°
2026-04-21 12:47 44.22321 43.08872 1051 ft 16 kts 153°